Location: Baptist Memorial Hospital
(34.4976°N, 89.0284°W)
Time: 09:06:04
(UTC+00:00)

Cosmos 2369 - Pass Details

Date: 29 October 2020
Orbit: 841 x 854 km, 71.0° (Epoch: 03 December)

Event Time Altitude Azimuth Distance (km) Brightness Sun altitude
Rises 23:28:22 0° 178° (S) 3,406 7.0 -5.5°
Reaches altitude 10° 23:30:58 10° 170° (S) 2,473 6.2 -6.0°
Maximum altitude 23:36:09 38° 104° (ESE) 1,285 4.3 -7.1°
Drops below altitude 10° 23:41:21 10° 38° (NE) 2,480 5.7 -8.1°
Sets 23:43:57 0° 31° (NNE) 3,418 6.5 -8.6°
